Location: Bartlow
(52.0833°N, 0.3167°E)
Time: 21:21:47
(UTC+00:00)

PAYLOAD A - Pass Details

Date: 26 September 2023
Orbit: 691 x 830 km, 98.5° (Epoch: 09 December)

Event Time Altitude Azimuth Distance (km) Brightness Sun altitude
Rises 04:29:34 0° 10° (N) 3,098 7.5 -13.2°
Reaches altitude 10° 04:31:52 10° 5° (N) 2,187 6.6 -12.8°
Maximum altitude 04:36:24 44° 294° (WNW) 988 4.2 -12.1°
Drops below altitude 10° 04:41:02 10° 223° (SW) 2,238 5.9 -11.4°
Enters shadow 04:41:06 10° 222° (SW) 2,265 6.0 -11.4°
